Wind_Speed
17 16 16 15 15 16 15 15 16 16 15 15 14 13 12 11 10 9 8 8 8 8 9 9 9 9 11 11 11 11 11 11 10 9 8 6 5 4 3 3 3 2
18 17 17 15 15 16 16 16 17 16 15 15 13 12 11 10 10 9 8 8 8 9 10 11 11 11 13 14 14 14 14 14 14 13 12 11 10 8 6 5 3 2
20 19 18 17 16 17 17 18 18 17 16 14 13 12 11 10 9 9 8 8 8 8 9 10 11 11 11 11 12 12 12 12 12 12 12 12 11 11 10 9 7 5
22 21 20 19 19 19 19 19 19 18 16 15 13 13 12 10 9 9 8 8 8 8 8 8 9 8 8 7 8 8 8 7 7 8 8 8 9 9 10 10 10 8
24 24 23 22 21 20 20 20 20 19 18 16 15 14 13 12 11 10 10 9 9 9 8 8 7 7 6 5 4 3 3 3 3 4 5 5 5 6 6 7 9 9
26 25 25 24 23 22 21 21 21 20 19 18 16 15 14 13 12 12 11 11 10 10 9 9 8 7 6 5 4 3 2 2 3 3 4 4 4 4 4 5 6 8
27 27 26 25 24 23 23 23 23 21 20 19 17 16 15 14 13 13 12 11 11 10 10 10 9 9 8 8 7 6 6 6 6 6 5 5 5 5 4 4 5 6
28 28 27 26 25 25 25 25 24 22 21 20 18 17 16 15 15 14 13 12 11 11 11 11 11 10 10 10 9 9 9 9 8 8 8 7 7 7 5 5 5 5
28 27 27 26 25 25 26 26 25 24 23 21 20 18 17 17 16 15 14 13 13 12 12 12 12 12 12 12 11 10 10 10 10 10 9 9 9 8 6 5 5 5
27 27 27 26 26 26 26 26 26 26 24 23 22 21 20 19 18 17 16 15 15 14 14 14 14 13 13 13 11 10 10 10 10 10 10 10 10 10 8 6 5 5
27 27 26 26 26 26 27 27 27 27 26 24 24 23 22 21 20 19 18 17 17 17 16 15 15 14 14 13 12 11 10 10 10 10 10 11 11 10 9 7 7 7
26 26 26 26 26 26 27 28 28 28 26 26 25 25 24 23 22 21 20 19 19 18 17 16 15 15 15 14 13 11 11 11 11 12 12 12 11 10 9 9 8 8
25 25 26 26 27 27 28 29 29 28 27 27 27 26 26 25 24 23 22 21 20 19 18 16 15 15 15 15 14 13 13 14 14 14 14 13 13 11 10 10 9 9
26 27 27 27 28 29 29 29 28 28 27 27 27 27 26 26 25 24 23 21 20 19 18 17 16 16 17 17 16 15 16 16 16 16 15 14 14 13 11 11 10 9
27 28 28 29 29 29 29 28 28 27 27 27 27 26 26 26 25 24 22 21 20 20 19 18 17 17 19 19 18 17 17 17 17 17 16 15 15 13 12 12 12 11
28 29 29 29 29 29 28 28 27 27 26 26 26 25 25 24 22 21 21 21 21 20 20 20 19 19 20 20 18 17 17 17 17 17 17 16 16 14 13 13 13 12
29 29 29 29 29 28 28 28 27 26 25 24 24 24 23 22 21 20 20 21 21 20 20 20 19 20 20 19 17 17 17 18 18 18 17 17 16 15 14 14 13 13
29 29 29 29 29 28 28 27 26 25 24 24 24 23 23 22 21 21 21 21 20 20 20 20 19 20 20 19 17 16 17 18 19 18 18 17 17 16 15 14 13 13
29 29 28 28 28 28 28 27 26 25 24 24 24 24 23 22 22 21 21 20 20 21 21 20 20 20 20 19 17 18 19 19 18 18 17 17 16 16 15 14 13 13
28 28 27 27 27 27 27 26 25 25 24 24 25 25 24 23 23 23 22 21 21 22 22 21 21 21 21 19 19 19 20 19 17 17 16 16 15 15 15 14 14 13
28 27 27 27 27 27 26 25 24 24 24 24 25 24 24 24 24 24 22 22 22 22 22 22 22 23 22 21 21 21 20 18 17 16 16 15 16 15 15 15 15 14
28 27 26 26 25 24 24 22 22 21 21 22 23 23 23 24 24 24 24 24 24 23 23 23 24 24 23 22 22 22 20 17 16 16 17 16 17 16 16 16 15 15
27 27 25 24 23 22 21 20 20 20 19 20 20 20 21 23 24 25 26 26 26 25 25 26 26 25 24 23 23 21 19 17 17 17 17 17 18 18 17 16 16 16
27 27 25 24 22 21 21 21 20 20 19 20 19 20 21 22 24 25 26 27 27 27 27 28 28 27 25 23 22 21 19 18 19 18 18 19 19 19 18 18 18 17
28 27 26 24 23 22 21 21 21 21 21 20 20 20 21 22 24 25 26 26 27 28 28 29 29 28 25 23 23 21 20 20 20 20 20 21 21 21 21 20 20 19
28 27 26 25 24 24 23 23 23 22 22 21 21 20 20 21 23 24 26 27 27 28 28 28 29 28 26 24 24 23 22 22 22 21 22 23 24 24 23 22 22 22
Wind_Direction
188 189 196 195 192 191 188 184 183 182 178 176 174 167 159 155 153 150 144 134 125 120 120 117 112 107 102 101 101 99 95 92 89 87 85 81 77 73 64 53 45 34
190 193 199 197 194 193 190 187 188 186 183 182 178 171 167 165 162 159 153 142 131 125 123 119 115 111 107 103 101 99 96 93 90 86 82 78 74 71 66 60 55 46
191 195 200 199 197 196 193 192 193 191 189 189 183 179 181 180 174 170 167 157 145 138 133 128 124 120 114 109 104 101 98 94 91 87 82 77 72 68 64 59 55 50
190 194 200 201 199 198 196 195 196 195 194 195 192 190 193 193 189 185 184 176 166 161 154 145 140 134 128 121 112 104 98 93 87 82 76 72 68 62 58 55 50 46
190 194 199 201 199 197 196 197 199 199 199 201 201 199 200 199 197 197 197 194 187 184 180 174 168 161 159 156 144 122 98 79 63 54 50 50 49 46 45 43 42 40
191 194 199 202 199 196 196 199 202 202 203 206 206 206 206 202 199 200 202 202 199 198 199 199 197 196 200 205 212 233 270 307 326 339 352 2 4 7 13 19 25 27
194 196 200 203 200 196 196 200 204 204 205 208 208 208 208 204 201 202 203 205 207 209 211 213 216 218 221 228 237 250 264 278 290 300 309 316 320 326 339 350 360 7
197 198 201 204 202 197 197 201 204 206 208 211 211 209 206 204 204 204 206 209 214 218 220 222 226 230 232 235 240 248 257 265 274 282 288 294 295 300 315 328 335 344
200 201 203 204 203 200 199 201 204 207 209 210 211 209 206 205 205 206 209 213 218 224 229 232 235 237 239 240 242 246 250 255 262 268 274 278 281 287 296 303 310 317
202 203 204 205 204 202 201 202 204 207 208 208 209 209 206 206 207 208 212 217 223 227 232 236 241 244 245 245 245 244 246 250 253 256 261 264 268 275 281 282 284 291
203 203 204 205 205 203 203 203 204 207 207 206 206 207 207 208 209 211 215 220 226 230 235 238 243 248 251 251 249 246 245 245 245 247 249 252 256 261 265 266 269 275
203 203 204 206 205 205 204 204 205 206 206 205 205 207 208 209 212 215 219 224 229 233 238 241 244 247 251 254 255 254 252 247 244 243 243 244 246 248 249 252 257 265
202 202 203 204 204 204 205 205 206 206 206 205 206 207 209 210 213 217 221 225 230 234 238 243 246 249 253 256 257 259 259 256 253 249 246 244 243 243 243 244 248 254
201 201 201 201 202 203 204 205 206 206 206 207 208 208 210 212 214 218 221 225 230 233 236 240 245 250 255 258 259 260 260 260 258 256 253 249 245 242 240 240 243 244
200 199 198 198 200 202 204 206 206 207 208 208 209 209 211 213 215 219 222 226 230 233 236 239 241 245 249 253 256 259 260 260 259 258 255 250 245 241 236 236 238 238
198 197 197 198 200 202 205 206 207 209 209 208 208 210 212 215 218 222 226 229 233 236 238 240 241 242 245 249 253 257 258 258 257 254 251 246 244 241 236 234 235 234
197 198 198 199 202 204 206 208 209 208 208 207 209 211 214 217 220 225 230 235 239 241 242 242 242 243 246 249 253 256 256 255 253 250 246 242 242 241 237 235 233 230
198 199 199 201 203 205 207 208 208 207 207 209 211 215 218 220 222 227 232 237 241 244 245 244 243 244 246 249 252 254 254 253 251 250 245 241 240 238 237 236 232 225
198 199 200 201 203 205 206 206 206 207 209 212 216 219 221 223 226 230 234 236 240 243 244 244 244 246 249 251 252 254 256 255 253 251 246 240 237 235 234 233 227 221
198 198 199 200 202 203 205 206 207 210 214 217 220 223 225 227 230 234 235 236 238 241 242 242 243 246 249 251 252 255 257 257 255 250 244 238 235 231 228 224 220 219
196 197 197 199 202 205 207 209 212 215 219 222 225 227 229 231 233 235 236 237 239 241 243 243 243 245 248 249 251 254 257 257 252 245 238 236 235 231 224 219 217 217
194 195 197 200 203 206 208 210 213 216 220 224 226 229 230 232 234 235 235 236 238 240 243 244 245 246 246 247 248 252 254 253 247 240 236 236 236 233 225 220 219 220
192 193 195 198 201 203 205 207 211 215 220 224 226 228 230 231 233 233 233 234 236 238 241 243 244 245 245 244 246 249 251 249 243 239 238 237 237 233 227 224 224 227
190 191 194 196 199 202 206 209 214 219 223 226 228 231 233 233 234 235 234 234 235 237 240 243 245 246 244 244 245 247 248 246 243 242 240 238 236 232 229 228 230 233
192 194 196 199 201 206 210 213 217 222 227 229 231 234 236 237 239 239 239 238 238 238 240 243 246 248 246 244 245 247 246 244 244 245 243 239 236 234 232 232 233 237
196 198 201 204 206 210 214 217 220 224 228 232 234 236 238 240 241 242 243 243 242 241 241 244 247 249 247 244 245 246 245 245 247 247 243 240 238 238 237 236 237 242
Height
5929 5931 5932 5933 5935 5936 5938 5940 5941 5942 5942 5943 5944 5945 5946 5946 5947 5948 5948 5949 5950 5950 5951 5952 5952 5953 5954 5954 5954 5955 5955 5955 5956 5956 5956 5956 5956 5956 5956 5956 5956 5956
5928 5930 5931 5932 5934 5936 5938 5939 5940 5941 5942 5943 5944 5945 5946 5946 5947 5948 5948 5949 5950 5950 5951 5952 5952 5953 5954 5955 5955 5955 5955 5956 5956 5956 5956 5957 5957 5957 5956 5956 5956 5956
5926 5928 5930 5931 5933 5935 5936 5938 5940 5941 5942 5943 5944 5944 5945 5946 5947 5948 5949 5949 5950 5950 5951 5952 5952 5953 5954 5955 5955 5955 5956 5956 5956 5957 5957 5957 5957 5957 5957 5956 5956 5956
5924 5926 5928 5930 5931 5933 5935 5937 5939 5940 5941 5942 5943 5944 5945 5946 5947 5948 5949 5949 5950 5950 5951 5951 5952 5953 5953 5954 5955 5955 5955 5956 5956 5956 5956 5957 5957 5957 5957 5957 5956 5956
5922 5924 5926 5927 5929 5931 5934 5936 5937 5939 5940 5942 5943 5944 5944 5945 5946 5947 5948 5949 5950 5950 5951 5951 5951 5952 5953 5953 5954 5954 5955 5955 5956 5956 5956 5956 5956 5956 5957 5956 5956 5956
5919 5921 5923 5925 5927 5930 5932 5934 5936 5937 5939 5940 5942 5943 5944 5945 5946 5947 5948 5949 5949 5950 5950 5951 5951 5952 5952 5953 5953 5953 5954 5954 5955 5955 5955 5955 5956 5956 5956 5956 5956 5956
5918 5919 5921 5923 5926 5928 5930 5932 5934 5936 5937 5939 5941 5942 5943 5944 5945 5946 5947 5948 5949 5950 5950 5950 5951 5951 5952 5952 5952 5953 5953 5953 5954 5954 5954 5955 5955 5955 5955 5956 5956 5956
5916 5917 5919 5922 5924 5926 5928 5930 5932 5934 5935 5937 5939 5940 5942 5943 5944 5945 5947 5948 5948 5949 5949 5950 5950 5950 5951 5951 5952 5952 5952 5953 5953 5953 5953 5953 5954 5954 5954 5955 5955 5955
5914 5916 5918 5920 5922 5925 5926 5928 5930 5932 5934 5936 5937 5938 5940 5942 5943 5944 5945 5946 5947 5948 5949 5949 5949 5950 5950 5950 5951 5951 5952 5952 5952 5952 5952 5952 5952 5952 5953 5954 5954 5954
5912 5914 5916 5918 5921 5923 5925 5927 5928 5930 5932 5934 5935 5937 5938 5940 5941 5943 5944 5945 5946 5947 5947 5948 5948 5949 5949 5949 5950 5950 5951 5951 5951 5951 5951 5951 5951 5951 5952 5952 5953 5953
5910 5912 5914 5917 5919 5921 5923 5925 5926 5928 5930 5932 5933 5935 5937 5938 5940 5941 5942 5943 5944 5945 5946 5946 5947 5947 5947 5948 5948 5949 5949 5950 5950 5950 5950 5950 5950 5950 5950 5951 5951 5952
5908 5911 5913 5915 5917 5919 5921 5923 5925 5927 5928 5930 5932 5933 5935 5936 5938 5939 5940 5941 5941 5942 5943 5944 5946 5946 5946 5947 5947 5947 5948 5948 5948 5948 5948 5948 5948 5948 5949 5949 5950 5950
5907 5909 5911 5913 5915 5917 5919 5921 5923 5925 5926 5928 5930 5931 5933 5935 5936 5937 5938 5939 5939 5940 5942 5943 5944 5944 5945 5945 5945 5946 5946 5946 5946 5946 5946 5946 5946 5947 5947 5948 5948 5948
5905 5906 5908 5910 5912 5914 5916 5919 5921 5923 5925 5926 5928 5930 5931 5933 5934 5935 5936 5937 5938 5939 5940 5941 5942 5943 5943 5943 5943 5944 5944 5944 5944 5944 5944 5944 5944 5945 5945 5946 5946 5947
5903 5904 5906 5908 5910 5912 5915 5917 5919 5921 5923 5925 5926 5928 5930 5931 5932 5934 5935 5936 5937 5937 5938 5940 5941 5941 5941 5941 5942 5942 5942 5942 5942 5942 5942 5942 5943 5943 5944 5944 5945 5945
5901 5902 5904 5906 5908 5911 5913 5915 5917 5919 5921 5923 5925 5926 5928 5929 5931 5932 5933 5934 5935 5936 5937 5938 5939 5939 5939 5940 5940 5940 5940 5940 5940 5940 5940 5940 5941 5941 5942 5942 5943 5943
5899 5901 5903 5905 5907 5910 5911 5913 5915 5917 5919 5921 5923 5924 5926 5928 5929 5931 5932 5932 5933 5934 5935 5936 5937 5937 5937 5938 5938 5938 5938 5938 5938 5938 5939 5939 5939 5940 5940 5941 5941 5941
5898 5899 5902 5904 5906 5908 5910 5912 5914 5916 5918 5920 5921 5923 5924 5926 5928 5929 5930 5931 5931 5932 5933 5934 5934 5935 5935 5936 5936 5936 5936 5936 5936 5937 5937 5938 5938 5938 5939 5939 5940 5940
5896 5898 5900 5902 5904 5906 5908 5910 5913 5915 5917 5918 5919 5920 5922 5924 5926 5927 5928 5929 5930 5930 5931 5931 5932 5932 5933 5934 5934 5934 5934 5934 5935 5935 5936 5936 5937 5937 5938 5938 5938 5938
5894 5897 5899 5901 5903 5905 5907 5909 5911 5913 5915 5916 5917 5919 5921 5922 5923 5924 5926 5927 5927 5928 5929 5930 5930 5930 5931 5931 5932 5932 5932 5933 5934 5934 5935 5935 5936 5936 5936 5937 5937 5937
5893 5895 5897 5899 5901 5903 5905 5908 5910 5911 5913 5914 5915 5917 5919 5920 5921 5922 5923 5924 5925 5925 5926 5927 5928 5928 5929 5929 5930 5930 5930 5931 5932 5933 5933 5934 5934 5935 5935 5935 5935 5935
5891 5893 5895 5897 5900 5902 5904 5906 5908 5909 5911 5912 5913 5915 5916 5918 5919 5920 5921 5922 5922 5923 5924 5925 5925 5925 5926 5927 5927 5927 5929 5930 5931 5931 5932 5932 5933 5933 5933 5934 5934 5934
5889 5892 5894 5896 5898 5901 5903 5905 5906 5907 5909 5910 5912 5913 5914 5915 5916 5917 5918 5919 5920 5921 5922 5922 5922 5922 5923 5924 5924 5925 5927 5928 5929 5929 5930 5931 5931 5931 5932 5932 5932 5932
5888 5890 5892 5895 5897 5899 5901 5902 5904 5905 5907 5908 5910 5911 5912 5913 5913 5914 5915 5916 5918 5918 5919 5919 5919 5920 5921 5922 5922 5923 5925 5926 5926 5927 5928 5929 5929 5929 5930 5930 5930 5930
5886 5888 5891 5893 5895 5897 5899 5900 5902 5903 5904 5906 5908 5908 5909 5910 5911 5912 5913 5914 5915 5916 5916 5917 5917 5918 5919 5920 5920 5921 5923 5923 5924 5925 5926 5927 5927 5927 5927 5928 5928 5928
5885 5887 5889 5891 5893 5895 5896 5898 5899 5901 5902 5904 5905 5906 5907 5907 5908 5909 5910 5911 5912 5913 5914 5915 5915 5915 5917 5917 5918 5919 5920 5921 5922 5923 5924 5924 5924 5925 5925 5926 5926 5925